OBJECT C

Satellite information

Favourite Embed

Satellite Type and Status

UNKNOWNDECAYED

Key statistics

Satellite OBJECT C at a glance.

Uptime

4

Days in orbit

Revolutions

≈ 16.2

Per day

Orbit

LEO

Low Earth Orbit

Inclination

51.6

Latest

Satellite identification and parameters

Extended collection of information and parameters for OBJECT C.

Object identification

Identified? True

Debris? False

Object name: OBJECT C

International designator: 2025-072C

Object number (NORAD): 63522

Object ID (CCSDS): 63522

Country: COMMONWEALTH OF INDEPENDENT STATES (CIS)

Current information (Y/N): Y

Orbital parameters

Decay date: April 12, 2025

Period: 88.89 minutes

Inclination: 51.6448 deg

SMA: 6597.755 km

Apoapsis: 256.622 km

Periapsis: 182.618 km

RAAN: 290.3777 deg

Eccentricy: 0.0056083

Argument of periapsis: 77.631 deg

Mean anomaly: 25.1594 deg

Mean motion: 16.19975563 rev/day

Mean motion (dot): 0.08929461 rev/day2

B* drag term: 0.0031616 1/REarth

Two-line elements (TLE)

Creation date: April 8, 2025, 8:46 p.m.

Reference frame: TEME

Reference center: EARTH

Epoch: April 8, 2025, 7:23 p.m. UTC

TLE line 0: 0 OBJECT C

TLE line 1: 1 63522U 25072C 25098.80765435 .08929461 11999-4 31616-2 0 9997

TLE line 2: 2 63522 51.6448 290.3777 0056083 77.6310 25.1594 16.19975563 63

Live tracking on map

Satellite OBJECT C has decayed and is no longer in orbit. No tracking available.

In-orbit conjunctions

Satellite OBJECT C has decayed and is no longer in orbit. No conjunctions available.

Associated space launch

Soyuz MS-27 will carry two cosmonauts and one astronaut to the International Space Station aboard the Soyuz spacecraft from the Baikonur Cosmodrome in Kazakhstan. The crew consists of Roscosmos cosmonauts Sergey Ryzhikov, Alexey Zubritsky, and NASA astronaut Jonathan "Jonny" Kim.

OBJECT C was lifted into orbit during the mission ‘Soyuz 2.1a | Soyuz MS-27’, on board a Soyuz 2.1a space rocket.

The launch took place on April 8, 2025, 5:47 a.m. from 31/6.

For more information about the launch, click the button.

Launch to space Soyuz 2.1a | Soyuz MS-27
Soyuz 2.1a | Soyuz MS-27

Agency: National Aeronautics and Space Administration

Status: Launch Successful

Launch date: April 8, 2025, 5:47 a.m. UTC

Rocket: Soyuz 2.1a

Launch pad: 31/6

Location: Baikonur Cosmodrome, Republic of Kazakhstan

...

Latest news about this satellite

News about space launch
NASA Astronaut Jonny Kim Returns to Earth

The Soyuz MS-27 spacecraft is seen as it lands in a remote area near the town of Zhezkazgan, Kazakhstan on Dec. 9, 2025, with Expedition 73 NASA astronaut Jonny Kim, and Roscosmos cosmonauts Sergey Ryzhikov and Alexey Zubritsky aboard. The trio returned t...

News about space launch
Soyuz safely lands in Kazakhstan

A NASA astronaut and two cosmonaut crewmates strapped into their Soyuz ferry ship Monday evening, undocked from the International Space Station and plunged to an on-target landing on the frigid steppe of Kazakhstan early Tuesday to wrap up an eight-month ...

News about space launch
NASA Astronaut Jonny Kim, Crewmates Return from Space Station

NASA astronaut Jonny Kim returned to Earth on Tuesday alongside Roscosmos cosmonauts Sergey Ryzhikov and Alexey Zubritsky, wrapping up an eight-month science mission aboard the International Space Station to benefit life on Earth and future space explorat...


Newsletter sign-up

Weekly statistics, charts and insights to help you stay on top of the space industry.